{"data":{"norad_id":57782,"epoch":"2026-05-25T05:12:26.308224Z","epoch_age_seconds":70364,"freshness":"FRESH","line1":"1 57782U 23134M   26145.21697116  .00000394  00000+0  23832-4 0  9990","line2":"2 57782  43.0012 122.0468 0001058 265.0762  94.9969 15.27580675151218","mean_motion":15.27580675,"eccentricity":0.0001058,"inclination_deg":43.0012,"raan_deg":122.0468,"arg_perigee_deg":265.0762,"mean_anomaly_deg":94.9969,"bstar":2.3832e-5,"rev_number":15121,"period_min":94.266707059514,"perigee_km":482.32116157245,"apogee_km":483.77298812269,"semimajor_km":6861.1840748476,"source":"CELESTRAK","updated_at":"2026-05-25T13:38:18.406072Z"}}